Wind_Gust
10 10 10 7 7 6 6 15 16 11 9 13 13 11 14 8 6 10 10 8 11 7 10 8 8 15 14 12 11 14 12 14 8 18 11 12 16 19 17 23 24 24 23 22 21 21 20 16 17 21 21 21 20 18 18 19 17 16 15 15 14 14 14 15 16 16 15 14 14 14 14 15 14 14 14 14 13 13 13 15 16 16 17 17 18 19 19 19 19 20 20 21 20 20 21 21 22
8 10 7 6 6 7 7 8 12 7 8 9 17 8 8 11 8 6 12 9 7 8 9 16 18 20 18 19 19 15 16 13 7 10 11 16 20 17 18 22 23 25 22 22 21 21 20 19 17 18 21 21 20 19 19 18 16 16 15 14 15 15 15 16 15 15 16 15 15 15 15 15 15 14 14 14 13 12 13 14 16 17 18 17 18 19 19 18 18 19 20 20 20 20 19 19 18
9 11 6 6 7 11 11 9 14 6 11 16 14 10 10 11 9 12 12 7 14 15 10 13 13 11 10 8 12 11 9 8 13 13 19 19 25 17 19 22 21 22 22 22 21 21 19 18 16 17 20 21 19 19 18 17 17 16 15 15 14 15 15 16 16 16 16 16 16 16 16 16 16 15 15 14 14 14 14 14 16 17 18 18 18 18 18 19 19 18 18 19 19 19 19 18 17
5 6 5 7 6 9 6 10 7 13 17 12 14 8 8 9 12 11 12 14 14 8 7 7 8 10 8 13 13 13 15 11 10 15 25 25 19 21 21 21 21 21 21 22 20 20 18 18 15 16 19 20 20 19 18 18 17 15 15 15 14 14 15 16 16 16 15 16 16 16 16 16 15 15 15 15 15 15 15 16 16 18 19 18 18 16 16 17 17 18 17 17 17 18 18 17 15
5 5 7 9 9 8 8 7 7 8 18 13 9 9 7 11 16 13 11 10 6 8 6 7 11 13 15 14 7 8 11 14 14 9 23 16 19 21 21 21 21 21 21 21 20 20 21 18 14 15 17 19 19 19 18 17 16 15 14 14 14 15 15 15 15 16 16 16 17 16 16 17 17 16 16 17 16 16 16 16 16 17 18 18 17 15 15 14 15 15 15 16 16 16 16 15 13
6 5 8 6 7 9 14 10 10 15 8 11 10 11 11 8 7 5 14 11 9 10 7 9 8 10 10 12 8 16 13 16 13 13 17 18 21 21 21 20 21 21 19 19 19 19 21 18 15 14 16 18 19 19 17 17 17 15 14 14 14 15 14 15 15 16 17 17 17 17 17 18 17 16 16 15 15 15 15 16 16 16 16 17 16 15 14 14 13 13 14 15 15 15 15 13 12
6 10 14 11 11 9 11 12 15 11 11 10 9 10 12 9 7 6 7 7 12 18 11 12 12 16 19 18 18 15 11 8 16 14 11 21 21 21 21 21 21 21 20 19 19 20 22 14 14 15 15 17 18 18 18 17 16 15 14 13 14 14 14 14 15 16 16 16 17 17 18 18 17 16 15 14 15 15 15 16 16 16 17 17 17 15 15 14 13 13 14 15 15 14 13 12 11
6 9 8 8 10 9 10 8 12 11 10 13 8 11 10 8 7 12 8 9 6 7 9 13 8 12 13 8 13 12 16 12 18 19 21 22 22 21 22 22 23 21 20 19 19 19 20 15 14 14 15 16 17 17 17 17 16 15 14 13 13 14 13 14 14 15 16 16 18 18 17 17 17 16 15 14 14 14 15 15 16 16 15 15 15 14 15 14 13 12 13 14 13 13 13 12 12
10 12 7 10 12 11 7 12 11 8 12 9 13 11 16 15 9 8 11 6 7 8 11 9 10 11 10 16 15 11 14 16 20 21 21 23 22 21 22 21 23 22 21 19 20 19 19 16 13 14 15 16 16 17 17 16 15 14 14 13 13 12 12 14 15 15 15 16 16 17 18 17 16 15 14 13 13 13 14 14 15 14 15 15 14 14 13 13 12 12 11 12 12 12 12 12 12
9 9 9 11 8 14 7 10 10 11 13 10 15 13 12 15 7 11 8 8 9 12 7 8 9 17 16 18 20 12 13 17 20 21 20 21 21 20 19 20 22 23 21 21 20 20 19 18 14 13 13 15 15 15 16 14 13 12 11 12 11 9 11 12 14 15 15 16 17 17 16 15 15 14 13 13 13 13 13 14 14 14 14 14 14 13 13 13 12 10 10 11 11 11 11 10 11
11 11 7 12 10 11 16 9 11 10 11 9 13 15 20 16 13 7 8 8 11 11 10 14 17 19 15 14 12 9 13 17 20 22 20 21 21 21 20 20 20 21 23 21 20 19 21 19 18 13 13 12 11 11 11 11 12 12 13 13 11 10 10 12 14 15 15 16 16 16 15 15 14 13 12 12 12 12 12 12 12 13 13 13 13 13 13 13 11 10 9 9 9 9 9 10 10
10 9 10 10 13 13 8 11 8 12 12 8 12 8 8 13 8 10 15 16 14 11 12 12 20 22 17 16 10 12 13 14 18 21 21 20 20 21 21 21 20 20 20 21 20 19 20 19 18 17 13 12 11 11 11 13 14 14 13 13 12 12 11 12 14 15 16 16 16 15 14 14 13 12 12 11 11 11 11 11 11 11 12 12 13 13 13 13 12 10 9 9 9 8 9 10 11
9 6 10 11 9 8 9 8 8 9 11 9 9 7 8 10 14 17 20 16 17 15 12 9 26 13 17 14 11 13 14 15 17 20 21 20 20 20 19 20 20 20 20 18 19 19 18 17 18 18 16 15 12 12 13 15 14 14 13 13 12 11 11 13 14 15 15 15 14 14 13 13 12 11 11 10 10 10 10 10 10 10 11 12 13 13 13 13 12 11 10 10 10 9 10 10 10
14 13 13 13 8 8 10 8 7 9 9 8 9 8 6 7 10 7 16 17 20 17 12 21 21 15 18 16 13 14 17 16 19 19 21 19 19 20 19 20 18 18 19 18 18 18 17 16 16 17 18 17 18 16 16 15 15 13 13 12 11 9 11 14 15 15 14 14 13 12 12 12 11 11 10 10 10 10 9 10 9 9 11 12 12 12 12 12 12 11 11 11 11 11 11 10 9
10 7 10 9 9 8 8 11 8 10 9 7 8 8 7 6 7 12 22 22 16 11 21 13 18 18 19 22 19 19 20 20 20 19 20 19 19 20 19 19 18 17 18 16 16 16 16 16 16 16 15 15 15 15 16 19 15 14 13 12 11 10 10 12 14 14 12 13 13 13 13 12 12 12 10 9 10 10 9 8 9 10 10 10 11 12 12 12 12 12 12 11 12 12 11 10 10
11 11 9 13 10 11 11 12 7 8 11 9 6 8 7 12 8 15 15 12 20 12 19 20 10 9 13 18 14 23 23 22 20 21 20 20 19 18 19 18 18 18 17 16 15 15 15 15 14 15 15 14 14 15 15 16 14 13 13 13 11 10 11 12 12 12 14 15 14 13 11 12 10 13 12 13 11 10 8 8 8 9 8 9 10 10 11 12 12 12 12 12 13 11 10 9 9
7 9 11 8 13 13 12 13 13 12 8 8 8 12 13 10 10 9 9 14 28 15 11 10 10 9 18 13 26 26 24 22 21 22 21 21 20 20 19 16 18 16 16 16 15 16 15 16 15 15 14 14 15 15 15 14 16 14 13 11 10 9 10 10 12 15 14 12 11 10 9 11 10 9 10 10 9 12 8 7 8 9 8 8 9 10 10 11 11 11 13 12 12 10 8 9 9
9 15 12 12 10 15 11 14 17 8 8 10 9 9 9 10 10 14 20 18 18 17 15 13 18 17 21 25 29 26 24 24 22 21 22 23 20 21 18 16 18 18 16 16 15 15 16 15 15 14 15 14 14 15 14 14 16 12 12 12 12 12 10 9 13 14 11 12 9 10 10 10 9 9 9 6 8 9 8 6 7 6 7 8 9 10 10 10 10 10 12 12 10 8 8 10 9
13 9 11 17 13 10 10 10 9 7 9 9 12 9 8 11 16 14 18 18 21 21 15 17 19 23 24 25 27 25 24 23 21 19 22 22 22 20 19 18 17 18 18 17 16 14 14 15 14 14 14 14 14 12 13 14 14 12 11 11 12 9 13 14 13 13 11 12 11 12 10 9 8 8 10 9 7 4 8 8 7 8 9 10 10 9 10 10 10 10 10 10 10 8 8 9 9
8 11 16 12 12 10 9 8 9 13 10 15 13 10 9 17 16 12 16 23 19 23 27 18 23 27 27 28 28 27 25 23 21 20 19 18 17 18 18 18 18 17 17 17 17 15 14 14 14 14 14 14 13 14 12 13 12 11 11 10 9 10 13 14 12 12 11 10 10 9 9 8 7 7 6 9 6 7 7 6 8 8 8 8 9 7 8 8 7 8 8 8 7 6 8 8 9
10 12 14 10 11 11 10 12 15 13 8 9 8 9 12 16 14 15 21 21 19 15 17 24 32 32 31 30 29 27 26 23 21 21 19 18 17 16 16 17 18 17 16 16 15 15 14 14 14 14 14 14 13 14 13 13 11 12 10 12 12 12 12 14 11 11 9 8 8 8 8 7 6 6 7 7 7 8 7 6 6 7 8 8 6 8 9 9 7 9 8 8 9 9 8 7 7
13 12 9 9 9 9 11 10 7 8 5 7 8 11 16 11 16 17 24 18 23 18 18 6 26 37 38 36 31 28 25 21 20 20 19 19 19 17 15 15 14 15 16 16 16 15 14 13 13 14 14 13 13 14 14 14 13 12 11 11 12 11 11 12 10 9 8 7 7 7 6 5 6 6 7 7 7 7 7 7 8 7 7 7 7 8 8 8 7 7 7 8 8 9 8 7 7
15 7 8 9 10 13 5 6 7 8 7 6 9 9 11 11 16 15 8 10 10 8 11 16 24 24 28 29 31 28 25 21 20 19 20 20 18 16 16 14 16 17 17 17 16 15 14 13 14 13 13 13 12 11 11 13 11 10 10 10 10 10 10 10 9 8 8 7 7 7 7 8 8 8 8 7 7 7 7 8 9 8 8 9 8 9 9 8 9 8 7 7 7 7 9 9 8
9 12 6 8 10 12 8 11 5 10 7 9 9 8 12 19 19 9 10 9 10 17 21 23 23 25 26 30 26 24 22 21 19 17 17 17 17 16 16 16 16 15 17 17 16 16 14 14 13 12 12 12 12 11 11 11 10 10 10 10 9 9 8 8 8 7 7 7 6 6 6 7 8 8 9 9 7 7 7 7 7 8 9 9 10 10 11 10 9 9 8 8 8 7 8 8 8
14 14 6 9 7 10 11 11 10 10 11 9 8 14 14 17 18 13 10 10 13 21 25 24 24 25 24 24 23 21 20 18 17 16 14 15 16 16 16 16 15 16 18 16 17 16 15 14 13 13 12 12 11 10 11 9 9 9 9 9 8 7 7 7 7 6 6 6 6 6 6 6 7 7 7 7 8 7 7 6 6 6 7 8 10 10 11 12 10 9 9 10 8 9 9 8 7
11 10 7 6 10 9 9 9 12 12 6 11 14 10 11 17 22 15 8 13 16 22 25 25 25 26 26 22 22 20 19 18 17 17 16 16 17 18 17 17 16 16 17 18 17 16 15 14 13 13 12 12 11 10 10 9 9 9 8 7 7 7 7 6 6 6 6 6 6 6 6 6 6 6 6 6 7 6 7 7 7 7 8 7 8 10 10 11 12 10 9 9 11 9 10 9 9
9 9 10 12 11 8 7 11 7 6 9 9 14 14 18 11 9 12 8 16 19 23 25 24 23 26 21 20 19 17 18 17 17 17 16 16 18 18 18 17 16 16 17 17 17 17 15 13 12 12 13 12 11 12 10 9 8 9 8 7 7 7 7 6 6 6 6 6 6 6 6 5 5 6 7 7 7 7 7 7 8 8 10 10 11 11 10 11 11 11 12 11 10 11 9 9 10
8 7 6 10 11 10 10 7 11 8 8 8 23 14 7 12 8 16 19 20 20 24 25 25 22 22 22 19 18 16 16 17 18 17 19 19 19 19 18 18 17 17 17 17 17 17 16 14 14 13 12 12 12 12 10 8 8 8 9 8 7 6 6 6 6 7 7 7 7 6 6 5 5 5 6 7 7 7 7 8 10 10 11 11 11 11 11 10 11 12 12 11 11 12 12 11 10
5 8 9 8 9 15 8 11 6 12 9 13 20 19 10 13 12 17 23 22 24 24 25 23 22 22 20 18 16 15 16 17 16 17 17 16 16 18 18 16 18 17 16 16 16 15 15 14 14 13 13 12 10 10 9 8 8 7 7 7 8 6 7 6 7 7 7 6 6 7 6 6 5 6 6 6 7 7 8 9 9 10 10 11 10 10 11 11 12 12 11 10 11 11 12 11 10
7 7 6 7 8 14 7 6 6 11 13 17 12 17 11 7 9 18 22 25 25 25 26 20 17 20 19 16 16 15 16 16 15 16 16 16 16 17 17 17 16 15 18 17 16 16 14 13 13 13 12 12 11 9 9 9 9 8 8 8 7 7 7 8 8 8 7 7 7 8 7 7 7 7 7 7 6 7 8 8 9 9 9 9 10 10 11 10 12 14 14 14 11 13 13 12 13
16 6 8 7 10 14 8 6 9 13 7 6 11 13 13 9 12 10 17 24 29 25 24 20 18 18 19 17 17 17 15 15 16 16 14 14 15 15 16 15 15 14 16 16 16 16 15 15 14 14 13 12 12 10 10 9 8 9 9 8 8 7 9 10 10 10 9 9 8 8 9 9 8 8 8 7 7 6 8 9 10 9 9 9 11 10 11 11 11 13 12 14 14 13 13 14 14
7 15 14 7 12 11 11 9 8 14 13 8 9 11 14 12 14 10 11 18 18 21 22 17 18 20 19 17 19 18 17 16 17 16 15 16 15 17 17 16 15 15 15 15 15 16 17 14 15 15 12 12 11 10 10 11 12 10 9 8 9 10 11 12 11 10 9 9 9 9 8 8 8 8 8 8 7 7 8 9 11 11 9 9 10 10 10 11 11 12 11 10 13 14 14 14 14
9 13 6 11 8 9 6 10 8 9 24 11 10 13 13 8 15 20 27 24 21 21 23 20 22 18 15 14 16 18 19 16 16 15 15 15 14 15 15 16 16 16 14 14 14 14 14 15 15 13 11 11 12 11 12 12 11 11 9 10 10 10 11 11 11 9 10 9 8 8 8 8 8 7 7 7 8 9 9 9 10 10 10 9 9 8 8 10 10 10 10 9 9 12 14 15 15
17 7 11 9 12 9 10 6 10 11 14 14 8 16 13 13 17 18 21 21 12 15 16 20 21 17 19 13 17 16 15 17 18 16 14 13 15 14 14 15 16 17 16 14 17 17 16 15 14 13 13 12 12 12 10 10 11 11 11 11 10 13 13 12 12 11 11 9 8 8 8 7 8 8 7 7 7 8 9 10 9 9 10 9 9 9 10 8 7 8 10 9 9 12 14 15 15
17 16 13 10 7 7 8 11 13 8 11 14 10 15 13 13 14 15 13 15 18 16 16 14 16 12 12 14 15 15 14 15 14 14 15 14 15 14 15 16 15 15 14 16 19 18 16 16 15 15 14 13 12 11 12 13 12 13 13 14 16 16 14 14 12 12 11 10 10 10 10 9 9 9 10 10 10 10 10 11 11 10 10 10 9 8 8 8 8 10 11 13 11 11 14 15 14
14 17 16 7 14 10 10 7 8 9 14 13 13 19 16 12 14 13 15 13 19 21 18 15 12 10 11 15 8 12 13 13 12 14 14 15 15 15 15 17 14 15 16 18 18 18 18 18 17 17 15 13 13 12 12 13 11 11 14 14 17 16 15 14 14 13 12 12 12 11 12 11 11 11 11 11 10 10 10 11 11 10 11 10 11 11 12 12 12 11 12 13 14 12 11 12 12
10 8 8 8 9 14 6 6 7 10 13 14 10 19 16 13 13 14 16 15 16 20 18 15 15 17 14 17 15 12 13 10 12 16 16 16 16 16 17 18 17 16 16 17 19 18 16 16 17 17 15 13 11 12 10 9 10 11 13 14 14 12 13 13 15 13 14 13 13 13 13 12 11 11 11 11 11 10 9 9 10 10 9 9 9 10 10 10 11 11 12 11 13 15 13 10 11
10 10 8 10 7 15 8 8 10 7 9 12 17 20 15 14 15 15 15 16 17 18 17 16 16 17 19 14 16 10 10 8 14 15 14 15 15 15 16 15 15 18 14 15 15 14 16 17 19 16 13 14 15 12 10 9 9 11 13 14 15 12 12 14 15 15 14 15 15 15 15 14 14 14 13 12 11 11 11 11 11 11 11 10 9 9 9 9 9 10 10 11 9 12 12 10 11
7 8 8 8 13 14 7 11 9 11 17 16 17 19 14 14 15 14 15 14 16 14 15 18 17 16 13 16 19 14 15 8 12 13 14 16 17 16 16 16 14 14 13 16 11 16 15 17 15 12 11 13 13 12 11 13 11 11 11 12 13 16 15 15 15 14 13 16 17 17 17 17 16 16 15 14 14 14 14 13 12 10 10 9 9 9 9 10 10 9 10 10 11 10 11 10 11
8 9 10 13 10 13 15 15 8 7 11 23 18 20 17 16 16 17 14 14 15 13 12 12 13 22 15 15 18 22 9 11 11 11 15 14 16 15 15 13 13 14 14 14 13 15 12 15 11 10 13 12 11 12 13 13 15 15 16 15 14 14 14 12 14 14 14 15 18 17 17 16 17 17 18 17 17 17 16 15 14 13 14 13 12 11 10 10 10 10 10 10 12 13 12 8 10
5 7 7 9 7 7 10 18 25 23 21 23 23 18 13 11 14 13 13 13 15 15 16 16 13 13 13 13 12 13 17 11 11 13 14 14 17 17 15 14 11 15 14 13 11 13 12 14 11 12 14 12 12 12 11 13 17 16 14 12 9 8 8 10 11 15 16 15 16 18 17 17 17 16 17 18 17 17 16 16 16 15 14 13 13 11 10 10 10 10 11 11 13 13 15 12 11
9 8 9 7 9 17 18 23 19 18 16 20 21 18 11 12 12 14 13 13 14 14 16 15 16 14 13 17 15 13 15 12 10 12 14 16 19 17 15 13 14 15 15 11 12 13 13 12 12 13 14 14 14 12 10 10 12 13 10 10 10 10 11 13 15 13 14 16 15 12 15 17 16 15 16 17 18 16 16 15 14 14 14 16 14 14 13 13 13 13 13 13 13 11 15 16 16
13 14 12 11 12 16 18 16 12 17 21 23 10 10 13 15 14 13 14 14 14 15 16 17 19 20 16 16 14 14 14 15 12 14 15 18 15 17 13 12 10 14 11 10 11 13 15 15 15 15 14 13 13 12 11 10 13 14 14 13 12 12 13 12 11 11 12 11 10 10 15 16 17 16 16 16 16 16 16 16 16 15 15 14 15 14 15 15 15 14 14 13 14 14 14 15 16
22 7 16 13 15 15 14 11 8 13 11 15 6 10 17 18 18 14 16 16 16 16 19 18 15 16 16 13 13 16 17 12 16 16 15 16 13 14 15 11 10 12 9 10 13 14 16 15 14 15 15 15 13 12 14 13 14 13 14 14 13 13 12 12 11 11 10 9 11 13 13 15 16 17 17 17 18 17 16 16 16 15 15 14 14 14 13 14 14 15 15 15 15 15 17 18 18
14 13 15 18 17 12 14 8 12 13 17 13 15 8 15 14 14 14 17 16 15 19 20 19 16 15 17 15 16 15 17 14 12 18 17 15 14 13 12 12 11 12 11 14 15 15 15 16 16 16 16 14 14 15 16 16 16 15 14 14 14 13 12 11 10 10 10 10 13 13 14 14 16 17 19 18 17 16 16 15 15 15 16 15 15 15 15 15 14 15 17 17 16 16 14 15 18
8 15 12 13 13 12 10 11 14 11 9 13 18 14 14 10 15 17 15 21 24 27 25 21 16 18 20 18 15 16 16 17 12 16 18 16 14 14 11 11 14 13 12 13 15 16 16 17 18 18 16 15 15 17 19 19 17 17 18 16 14 13 11 10 9 10 11 11 14 15 15 17 17 16 19 19 17 17 16 16 15 15 15 15 15 15 15 16 16 16 17 16 17 16 14 16 18
18 17 17 13 12 10 9 10 8 10 12 11 21 18 12 17 22 26 26 32 32 27 24 19 18 18 17 18 19 19 19 17 16 15 17 15 13 15 13 13 13 13 12 13 14 15 16 17 18 19 16 16 16 17 18 19 18 18 18 16 15 13 11 10 11 13 13 13 15 16 17 17 17 17 18 17 18 17 16 17 17 15 14 14 15 16 16 16 15 14 14 14 15 17 17 18 17
22 17 17 19 11 8 8 7 8 14 13 9 15 24 13 18 18 26 27 9 19 28 31 26 25 22 21 17 18 19 20 18 16 16 17 16 16 14 14 15 14 15 15 16 15 15 16 17 18 19 18 17 17 18 18 19 19 18 16 15 15 13 12 13 14 14 15 15 15 15 15 15 15 15 17 16 18 18 17 17 17 17 18 17 17 16 14 15 15 15 15 15 14 14 16 16 16
14 18 21 21 15 15 18 12 16 19 15 9 8 13 10 20 10 17 28 14 18 19 28 32 32 27 24 21 20 19 18 18 16 17 17 17 17 16 14 14 14 14 15 15 17 16 17 17 17 19 18 17 18 18 20 20 19 18 17 16 14 13 14 13 13 14 14 15 14 14 14 15 15 15 16 17 16 16 16 17 18 18 17 16 16 16 16 16 16 17 17 17 17 18 18 19 18
17 26 23 23 22 20 15 12 10 9 10 7 7 10 17 10 8 9 10 12 9 20 20 24 27 27 23 22 21 20 21 19 18 17 18 15 16 17 14 13 13 13 15 17 16 16 16 17 16 19 18 16 18 20 21 21 21 19 18 17 16 15 15 15 15 16 15 15 15 15 15 14 15 15 15 17 17 17 18 16 15 16 16 16 16 16 17 17 18 18 17 18 18 17 19 19 18
18 9 23 17 16 25 19 20 20 13 10 9 9 21 18 17 9 8 11 11 11 21 25 23 22 25 24 22 21 22 22 19 19 19 18 15 16 17 16 12 12 11 13 15 14 15 15 16 17 18 18 17 20 21 22 22 21 19 18 18 16 15 16 18 18 18 18 17 17 17 17 16 16 16 17 17 18 19 18 18 17 18 18 18 17 18 19 17 18 19 18 19 20 19 19 20 19
8 9 11 14 22 11 14 10 12 13 14 10 14 16 9 8 10 10 9 11 19 24 28 27 25 24 24 25 26 24 22 21 20 18 18 15 14 16 17 14 13 12 14 15 15 15 15 15 15 16 17 18 20 21 21 21 19 19 18 18 18 17 18 17 18 18 18 18 18 18 19 18 18 17 17 18 18 19 19 19 18 19 19 20 20 20 20 19 21 20 20 20 20 20 20 19 18
21 13 26 13 11 14 13 5 9 5 6 14 12 8 11 8 10 7 10 20 24 26 27 28 27 27 25 25 24 24 23 22 22 19 18 17 14 14 15 15 14 13 13 14 14 14 14 14 17 18 19 19 20 21 20 19 19 18 18 18 17 18 19 18 19 18 18 17 18 18 19 19 18 19 19 18 18 18 18 18 17 18 19 19 20 20 21 20 22 21 22 21 20 20 19 17 18
22 27 19 11 8 11 12 15 8 10 19 16 10 14 9 14 15 15 12 21 23 25 28 30 30 30 27 26 25 25 24 23 23 21 15 15 14 14 14 14 13 14 15 16 15 13 14 14 15 19 20 21 19 20 19 18 18 19 20 19 18 18 18 19 19 18 18 19 18 19 19 21 21 20 20 18 18 19 19 19 19 20 19 20 20 21 21 21 22 23 22 21 22 22 20 19 19
20 14 17 29 18 21 10 14 13 15 16 13 9 10 13 20 13 18 20 25 28 28 30 30 31 31 30 27 26 25 24 25 25 19 17 15 13 14 14 16 16 15 15 16 17 17 17 16 17 19 21 19 18 18 18 19 18 19 20 20 18 18 19 19 19 19 19 21 21 21 22 22 21 20 20 19 19 20 21 21 21 21 21 22 22 22 22 21 23 24 24 24 24 25 24 22 22
9 10 26 12 9 10 19 21 11 14 10 8 11 10 16 21 20 29 31 33 32 29 28 31 32 30 28 29 29 28 26 25 23 18 17 16 16 16 16 17 17 17 17 17 18 18 18 17 18 19 19 19 19 19 18 19 19 20 20 20 20 19 20 20 20 21 22 22 21 21 21 21 21 20 19 19 20 20 21 21 21 22 23 23 24 23 23 22 23 25 24 25 25 25 25 23 22
19 23 22 17 14 8 10 10 13 13 14 11 10 13 16 14 19 29 30 36 33 32 28 26 29 26 25 26 28 27 25 21 17 16 17 17 18 18 18 16 17 16 16 17 18 19 17 17 18 17 19 19 18 17 18 17 17 18 18 19 20 20 21 22 22 21 21 22 21 21 22 20 19 20 19 20 20 20 20 21 22 23 24 24 24 24 23 23 24 25 25 24 25 25 25 24 24
26 28 25 22 17 19 22 21 12 12 16 16 13 17 12 9 9 13 24 28 28 26 26 25 24 24 26 27 26 27 22 15 17 16 16 17 17 19 19 18 17 18 17 17 18 18 17 17 18 18 18 18 18 18 18 18 17 17 18 19 20 18 20 20 20 21 21 21 20 20 18 19 19 20 19 20 20 19 19 20 21 23 23 23 23 23 22 21 24 25 25 25 26 26 26 26 24
Wind_Speed
5 4 4 1 2 1 1 4 4 1 1 4 4 4 2 2 0 4 4 2 4 2 3 2 3 8 4 3 5 7 6 6 2 5 1 4 8 11 10 15 16 15 14 12 11 11 12 12 14 17 17 17 15 14 14 15 14 13 12 12 11 11 12 11 12 12 12 11 11 11 12 12 11 11 10 11 10 10 10 11 12 12 13 13 14 15 15 15 15 16 15 15 15 15 16 16 16
3 5 2 2 1 1 2 2 2 1 0 2 7 1 1 4 3 1 6 4 2 2 2 6 9 10 11 12 11 8 9 7 2 3 4 8 11 8 11 14 15 16 13 12 12 11 11 12 13 15 17 17 15 15 15 13 13 12 12 12 12 12 12 13 12 12 12 12 12 12 12 12 12 11 11 10 10 10 10 11 11 13 12 13 14 14 14 14 14 15 15 15 15 15 15 14 14
4 5 1 0 1 3 4 1 4 1 4 7 4 3 4 4 3 5 5 2 7 7 4 7 7 5 4 3 5 5 3 2 6 7 8 11 13 8 11 14 13 14 14 12 11 11 10 11 13 14 16 16 15 15 15 13 13 12 12 11 12 12 12 13 13 13 12 12 13 13 13 13 12 11 11 11 11 11 10 11 12 12 13 13 13 13 14 14 14 14 14 14 14 14 14 14 13
1 2 1 1 2 1 2 2 1 4 6 4 5 1 2 3 5 5 6 8 6 2 2 2 1 4 3 6 6 6 7 4 4 8 8 11 8 11 12 13 14 12 11 11 11 11 10 12 12 13 15 15 15 15 14 14 13 12 11 12 11 12 12 13 13 12 12 13 13 13 13 13 12 12 11 12 12 12 12 13 12 14 15 14 13 12 12 13 13 13 13 12 13 13 13 13 11
1 0 1 1 2 2 1 1 0 2 8 4 2 1 1 5 9 7 5 4 1 2 1 1 3 6 8 7 2 1 4 7 8 4 8 7 11 11 12 14 12 12 11 12 10 11 12 15 11 12 14 15 15 15 14 14 13 12 11 11 11 12 12 12 13 12 12 13 13 13 13 14 13 13 12 13 13 13 12 12 12 13 14 14 13 12 11 11 11 11 11 11 12 12 12 11 10
0 1 1 1 0 2 3 3 3 6 1 2 3 4 5 3 2 1 8 6 3 3 2 3 2 3 3 5 2 6 6 6 6 7 8 9 13 14 14 12 12 12 11 10 11 10 11 15 12 12 12 14 15 15 14 13 12 12 12 12 12 12 12 12 12 13 13 13 14 14 14 14 14 13 12 12 12 12 12 13 13 13 13 13 13 11 11 10 10 9 9 10 11 11 11 10 9
1 1 4 3 4 1 3 4 7 4 4 4 2 4 6 3 1 1 2 2 6 8 4 5 6 8 8 6 8 6 4 2 7 6 6 12 14 14 13 12 12 12 12 10 10 11 14 11 12 12 12 14 14 14 14 13 12 12 11 11 11 11 11 12 12 12 12 13 13 14 14 14 13 13 12 11 12 12 12 13 13 13 13 13 13 12 11 11 9 9 9 10 10 10 10 9 8
1 2 2 2 2 1 3 2 5 3 1 6 2 5 4 3 3 6 3 4 1 0 4 7 3 5 7 2 3 6 8 6 9 11 13 12 14 13 14 13 13 13 12 11 10 10 15 11 11 12 12 13 13 13 13 13 12 11 10 9 11 11 11 11 12 12 13 13 14 14 14 13 13 13 12 11 11 11 12 12 12 12 12 12 12 11 11 10 10 9 9 10 9 9 9 9 8
3 3 1 2 4 2 1 4 3 1 5 3 5 6 11 6 4 3 6 1 2 3 6 3 3 3 3 9 7 5 6 9 12 13 13 15 14 13 10 12 13 12 12 11 11 11 11 12 10 11 12 13 13 13 13 12 12 11 10 10 10 10 10 11 12 12 12 13 13 14 14 13 13 12 11 11 10 11 11 11 11 11 11 12 11 11 10 10 9 8 8 9 9 9 9 9 8
3 2 3 1 2 6 1 3 3 2 5 5 8 7 6 8 2 5 3 2 2 6 2 3 2 8 9 10 9 6 5 9 13 13 12 13 14 13 12 12 13 15 13 12 11 11 10 14 10 10 11 12 12 12 12 11 10 9 9 10 9 8 10 10 11 12 12 13 13 13 13 12 12 11 10 10 10 10 10 11 11 10 11 11 11 10 10 10 9 8 7 8 8 8 7 7 8
3 3 2 3 3 4 6 3 4 3 5 3 6 8 12 9 7 1 3 1 6 5 5 8 9 10 8 7 4 3 7 10 13 14 13 13 13 13 12 12 12 13 14 13 12 11 11 11 13 10 11 10 10 9 9 9 10 10 11 10 9 8 8 10 12 12 12 13 13 13 12 12 11 10 9 9 9 9 10 10 9 9 10 10 10 10 10 9 8 7 7 7 7 6 6 7 7
3 2 2 3 5 4 2 3 2 5 6 2 4 3 2 6 3 4 8 8 8 6 5 6 6 10 9 7 3 6 7 9 11 13 13 13 11 12 12 10 12 12 13 13 12 11 11 11 10 12 11 10 10 9 9 11 12 11 11 10 9 9 8 10 11 12 13 13 12 12 11 11 10 10 9 9 9 9 9 9 8 8 9 9 10 10 10 10 9 8 7 6 6 6 6 7 7
1 1 3 2 2 2 2 2 2 3 5 1 2 2 2 5 8 10 12 10 10 8 5 4 15 5 6 6 4 7 8 9 10 13 13 11 11 10 11 11 11 12 12 11 11 11 11 10 9 10 11 12 10 10 11 12 12 11 11 10 10 8 9 11 11 12 12 12 11 11 11 10 10 9 8 8 8 8 8 7 7 8 8 9 10 9 10 9 9 8 8 7 7 7 7 8 6
3 3 5 4 2 2 3 2 1 3 1 3 3 3 1 2 3 2 7 10 12 9 6 12 10 8 10 7 5 7 8 10 12 12 10 11 10 11 12 11 11 11 11 11 11 11 10 9 8 9 10 10 10 11 13 12 12 11 10 10 9 7 10 11 12 11 11 11 10 10 9 9 9 8 8 8 8 7 7 7 7 7 8 9 9 9 10 10 9 8 8 8 8 7 8 7 6
3 1 2 2 2 2 2 3 2 4 1 2 3 3 1 1 2 6 12 13 9 5 11 6 7 8 6 12 8 9 10 12 12 12 12 11 12 12 12 11 11 11 10 10 10 10 9 9 9 8 8 8 8 8 8 11 12 11 10 10 9 8 8 10 11 11 10 10 11 11 10 10 9 9 8 7 8 7 6 6 7 7 7 8 9 9 9 10 9 9 9 9 8 7 7 7 7
3 3 2 4 3 4 3 4 1 2 2 3 2 3 1 5 2 8 8 5 8 6 12 6 4 2 6 10 7 14 15 14 13 13 12 13 12 11 11 10 10 10 9 9 9 8 8 9 8 7 7 7 7 7 8 9 10 11 11 10 9 8 9 10 9 9 11 11 11 9 8 7 7 7 8 7 8 7 5 5 6 6 6 7 8 8 9 9 9 9 10 9 7 6 6 6 6
2 0 4 1 5 5 4 5 6 3 1 3 3 6 6 3 4 4 3 8 16 9 4 4 3 4 10 5 16 17 15 14 13 14 13 11 10 9 9 8 8 8 8 8 8 8 8 8 8 7 7 8 8 8 7 7 9 10 9 9 8 7 8 8 9 12 10 9 7 7 6 4 4 3 3 4 4 5 5 5 5 6 5 6 7 8 8 9 8 9 10 8 6 5 4 6 7
2 5 3 5 2 7 5 6 7 3 2 4 3 4 4 3 4 6 11 9 11 10 7 6 8 9 12 15 18 16 15 15 14 14 13 12 10 9 9 8 9 8 8 8 8 8 8 8 8 8 7 8 8 7 5 6 8 7 7 6 6 7 7 7 7 7 7 5 6 4 4 4 3 3 3 3 2 2 3 3 4 4 5 6 7 8 8 8 8 8 9 8 5 4 2 3 4
4 2 2 7 5 2 3 2 4 2 3 5 7 5 3 4 9 5 8 11 13 12 8 9 12 14 15 16 18 17 16 15 14 11 14 14 12 12 10 9 9 9 9 8 7 8 7 7 7 7 7 8 8 6 6 6 7 5 5 5 5 6 7 6 6 5 5 5 5 5 4 3 3 3 4 4 2 1 3 4 5 5 6 7 6 6 7 7 7 6 7 7 5 2 1 3 3
2 4 6 4 5 3 3 3 4 7 5 9 8 5 3 10 8 5 8 14 12 13 14 11 13 17 18 18 18 17 16 15 14 13 13 12 10 10 10 10 10 9 9 8 8 6 7 7 8 7 8 8 7 6 5 5 5 5 5 4 3 4 6 6 5 5 4 4 4 3 3 2 2 1 2 4 1 2 2 3 5 5 4 4 5 1 3 5 3 4 6 5 4 1 2 2 2
3 4 4 3 5 4 4 7 9 7 4 4 3 4 5 10 7 7 12 12 11 6 10 14 21 21 22 20 19 17 17 15 14 14 13 12 11 8 9 9 9 8 7 8 7 7 7 7 7 8 7 7 7 6 6 6 5 5 4 5 6 5 5 5 5 4 3 3 3 3 2 1 1 1 2 2 2 2 1 1 1 1 2 2 2 2 1 2 1 2 2 2 2 2 2 2 1
4 5 1 3 3 4 4 4 3 3 1 3 3 4 8 5 8 9 15 9 10 7 11 0 16 24 26 24 20 18 16 14 14 13 13 13 13 10 9 8 8 8 8 7 8 8 7 7 7 7 7 7 6 6 6 6 6 5 5 4 6 5 5 5 4 3 3 2 2 2 1 1 1 1 2 2 2 2 2 2 2 2 2 1 1 2 2 2 1 1 2 2 2 2 2 1 1
5 2 3 4 5 6 1 1 3 4 2 1 5 3 5 6 8 8 3 4 5 2 6 10 16 16 19 19 20 18 17 14 13 13 13 13 11 10 9 7 8 8 8 8 8 7 7 7 8 7 7 6 6 5 5 5 5 4 4 4 4 4 4 4 3 3 2 2 2 2 1 2 2 2 2 2 2 2 2 2 3 2 2 3 2 2 3 2 2 2 2 1 1 2 2 2 2
4 3 1 4 4 6 4 6 2 5 3 4 4 4 7 10 11 3 3 4 2 10 13 15 15 17 18 19 17 16 15 14 13 11 11 11 11 10 10 9 8 8 8 9 8 8 7 8 7 7 6 6 6 5 5 4 4 4 4 4 3 3 3 2 2 2 2 2 1 1 1 2 2 2 3 3 2 1 2 2 2 2 3 3 3 3 4 3 3 2 2 2 2 1 1 2 1
6 5 2 4 2 4 6 6 5 5 5 4 4 8 8 10 9 7 4 4 6 13 16 16 16 17 16 16 15 14 13 12 11 11 9 8 10 10 10 8 8 8 10 9 8 8 9 7 8 7 6 6 5 5 5 4 4 3 3 3 2 3 2 2 1 2 1 1 1 1 1 1 2 1 2 2 2 2 2 1 1 2 2 2 3 4 4 4 3 3 3 3 2 2 2 1 1
5 5 2 2 5 4 3 4 7 5 1 5 8 5 5 10 14 8 1 7 10 14 17 16 17 17 17 15 15 14 13 12 11 10 10 9 10 11 10 9 8 9 9 10 9 8 8 8 8 7 7 6 5 5 4 4 4 4 3 2 2 2 2 2 1 1 1 1 1 1 1 1 1 1 1 1 1 1 1 2 2 2 2 2 3 4 4 4 4 3 2 2 3 3 2 2 2
5 5 5 7 5 3 2 6 1 2 4 5 7 8 10 4 3 4 4 9 13 15 17 16 16 17 14 13 12 11 12 11 11 9 9 9 10 10 10 10 9 9 10 10 9 9 8 8 7 7 7 7 5 6 4 4 3 4 3 2 2 2 2 1 1 1 1 1 1 1 1 1 0 1 2 2 2 2 1 2 2 2 3 4 4 4 4 4 4 4 3 4 3 3 3 3 3
3 3 2 5 5 4 5 3 5 3 3 4 12 8 3 3 2 7 11 13 13 16 16 16 15 14 13 13 11 10 10 10 10 10 11 11 9 9 10 9 10 10 10 10 8 9 9 8 8 7 7 6 6 6 5 4 3 3 3 2 2 2 2 1 2 2 2 2 2 2 1 1 1 1 1 1 1 1 2 2 3 3 4 3 4 4 4 5 5 5 5 4 4 4 4 4 3
2 4 4 2 2 6 4 6 1 7 3 6 12 11 4 5 4 11 14 13 15 16 16 16 14 14 13 11 9 8 9 9 9 9 10 8 9 9 10 9 10 10 8 9 9 9 9 8 7 7 7 7 6 5 4 4 3 2 2 2 3 1 2 2 2 2 2 2 2 2 2 1 1 1 1 1 1 2 2 3 3 4 4 3 4 4 4 4 5 4 5 4 5 4 5 4 3
3 2 2 2 3 7 3 2 0 6 6 9 5 5 5 1 5 11 13 15 16 16 16 12 9 11 11 10 8 8 9 9 8 8 8 8 9 10 10 10 10 8 9 8 10 9 7 6 6 6 7 7 6 5 4 4 4 3 3 3 2 2 2 2 3 3 2 2 2 3 2 2 2 2 2 2 1 2 2 3 3 4 4 4 4 4 4 4 4 5 6 6 5 5 5 5 5
6 2 0 2 3 4 4 1 5 7 1 1 5 3 5 4 5 6 11 15 16 14 14 13 10 9 10 10 9 9 9 9 9 9 8 8 8 8 10 9 9 9 8 9 10 10 9 8 7 7 7 7 6 6 5 4 3 4 3 3 3 3 3 4 3 3 3 3 3 3 3 3 2 2 2 2 2 2 2 3 4 4 4 4 5 4 5 5 4 5 5 6 6 5 5 5 5
1 4 5 0 5 4 3 4 3 5 5 3 2 3 6 6 8 5 1 9 9 12 10 7 8 9 11 9 11 10 10 9 10 9 9 9 8 9 9 9 8 8 8 8 8 9 10 8 9 8 7 7 6 5 5 6 6 4 3 3 4 4 4 5 4 4 4 3 3 3 3 3 3 3 2 2 2 2 2 3 3 4 4 3 4 4 4 5 5 4 4 4 6 6 6 6 5
2 5 1 4 1 1 1 5 3 4 11 2 5 2 6 3 6 11 15 14 11 10 11 13 13 9 6 6 8 10 11 9 9 10 10 9 8 8 9 9 8 9 9 8 8 8 8 9 9 8 7 6 7 6 7 7 5 5 4 4 5 4 4 4 4 4 4 3 3 3 3 3 3 2 2 2 3 3 3 3 4 4 4 3 3 3 3 3 4 4 4 3 4 5 6 6 6
6 1 3 1 6 3 2 1 5 5 9 5 2 6 5 7 10 10 11 15 8 9 10 12 7 7 9 7 6 8 8 9 9 8 8 8 8 8 8 8 9 10 8 9 10 10 10 9 8 8 7 7 6 6 5 5 5 5 5 5 5 6 6 5 5 4 4 4 3 3 3 2 3 3 2 2 2 3 4 4 4 4 4 3 3 3 4 3 3 3 5 4 4 5 6 7 7
7 7 6 3 0 2 3 2 5 2 4 7 5 8 6 7 7 6 6 4 11 10 9 9 6 7 6 6 8 6 6 8 9 9 8 8 10 9 8 9 8 9 7 10 11 10 9 9 8 8 7 7 6 6 6 6 6 6 6 7 8 8 7 6 5 5 4 4 4 4 3 3 3 3 3 3 4 4 4 4 4 5 4 4 4 4 4 3 4 4 5 6 5 5 6 7 7
8 10 7 2 6 3 3 1 3 2 7 6 6 8 8 6 7 7 8 7 11 12 10 8 7 5 6 8 2 4 6 7 6 9 9 9 9 9 9 9 8 8 8 10 11 11 10 10 9 8 8 7 7 6 5 6 4 4 6 7 8 7 6 6 6 6 5 5 5 4 4 4 4 4 4 4 3 3 4 5 5 5 5 4 5 5 5 5 6 6 6 7 7 6 5 5 5
5 2 3 3 4 7 1 1 2 4 6 5 4 10 9 7 8 8 9 8 9 11 10 8 8 9 6 6 9 6 5 4 7 9 9 11 10 9 10 10 10 10 10 10 12 11 9 8 9 10 7 7 5 5 4 3 3 4 6 6 7 6 6 6 6 5 5 5 6 5 6 5 5 5 5 5 5 4 4 4 4 4 4 4 4 4 5 5 5 5 5 5 6 7 6 4 5
5 3 4 4 2 6 3 2 4 2 2 5 9 11 8 9 8 9 9 10 9 10 10 9 10 7 12 8 10 6 3 2 8 9 9 10 9 10 8 7 9 11 8 8 8 9 10 10 11 8 6 7 7 6 4 4 4 4 5 6 7 5 5 5 6 6 6 6 7 7 7 7 7 7 6 6 5 5 5 4 5 5 4 4 3 4 4 4 5 5 5 5 4 6 5 5 5
2 3 3 3 5 7 3 5 3 4 6 7 10 10 8 8 9 9 9 8 8 6 7 9 10 10 7 8 12 8 7 3 8 7 9 10 11 11 9 9 8 7 8 8 6 9 9 9 8 6 6 6 7 5 5 6 5 5 5 6 6 7 7 7 7 7 7 8 8 8 8 8 8 8 7 7 6 7 7 6 6 5 5 4 4 3 4 5 4 5 5 4 5 4 4 4 5
3 3 4 5 4 5 5 6 2 1 1 11 10 11 8 9 9 10 8 8 8 7 6 6 4 12 8 8 12 14 7 5 5 6 9 8 10 9 7 8 6 6 8 7 7 9 6 8 6 6 6 6 6 6 7 7 8 9 9 8 7 7 6 6 7 7 7 8 9 8 8 8 9 9 9 8 8 8 8 8 7 7 7 7 6 5 5 5 5 5 5 5 6 7 5 3 4
1 2 2 3 3 2 4 8 11 12 11 14 14 9 6 6 7 6 7 7 9 8 8 7 7 7 6 6 8 9 10 7 2 8 9 8 11 10 9 8 6 8 8 7 6 6 5 7 6 6 7 6 6 5 5 7 8 8 7 6 5 4 3 4 5 7 7 7 8 9 8 9 9 8 9 9 8 8 8 7 8 7 7 7 6 6 5 5 5 5 6 6 6 6 8 5 5
3 3 3 3 4 10 12 15 11 7 7 10 12 6 2 5 6 7 7 6 7 7 9 9 9 8 7 6 9 8 9 7 5 5 9 10 12 10 10 8 9 8 8 6 6 7 7 6 6 7 6 6 6 6 5 4 4 6 4 4 4 4 4 4 6 5 6 7 7 6 8 9 8 8 8 9 9 8 8 8 8 7 7 7 7 7 6 7 7 7 7 7 7 6 7 8 8
6 5 7 5 6 10 11 9 5 7 7 10 4 2 3 7 6 7 7 8 8 8 9 10 10 10 9 8 7 7 8 9 7 6 9 12 10 10 8 7 6 8 6 5 6 7 8 7 8 8 7 6 6 6 5 4 6 5 5 5 5 5 5 5 4 4 5 4 3 5 7 8 9 8 8 8 9 8 8 8 8 7 7 7 7 7 7 7 7 7 7 7 7 7 7 8 9
8 3 10 7 8 9 8 5 1 4 5 7 1 3 6 7 8 8 10 10 10 10 11 10 7 10 9 7 7 9 9 7 9 8 10 10 8 8 9 6 6 6 5 5 6 7 10 9 8 8 7 7 6 5 7 6 6 6 6 7 6 6 5 5 4 4 4 3 5 6 6 7 8 8 8 9 8 8 7 7 7 7 7 7 6 7 6 6 6 6 7 8 7 6 8 9 10
3 7 10 11 8 6 7 2 4 5 8 5 6 2 4 5 6 8 10 10 9 12 12 11 10 9 10 8 7 9 9 6 5 8 9 10 9 8 7 7 6 7 6 7 8 8 8 9 9 9 8 7 7 8 8 8 7 7 6 6 6 6 5 5 4 3 3 4 6 6 6 6 7 9 9 9 8 8 8 7 7 7 7 7 6 5 6 6 7 7 9 8 8 8 7 7 9
3 9 6 7 7 7 4 4 6 4 2 5 9 6 3 3 8 9 8 12 14 15 15 13 10 11 12 10 10 9 10 9 8 7 9 9 8 8 7 7 8 7 6 8 8 8 9 9 10 10 9 7 7 10 10 10 9 8 8 7 7 6 4 4 4 4 5 5 7 7 6 7 7 7 9 9 8 8 8 8 7 7 7 6 6 6 6 6 7 7 7 8 9 9 6 8 9
11 11 10 6 5 3 3 3 2 3 3 4 13 10 4 5 10 12 13 12 17 14 12 10 10 11 10 10 11 11 10 8 9 9 10 9 8 9 8 8 8 8 7 7 8 8 8 9 10 11 9 8 9 9 10 11 10 9 8 8 8 7 6 5 5 6 6 7 7 7 7 7 7 8 8 8 9 9 8 9 8 8 7 6 7 7 6 6 6 6 5 6 6 7 7 9 8
14 5 7 8 4 2 2 2 1 3 3 2 8 14 7 6 7 12 14 4 9 14 19 16 16 14 12 10 10 11 12 10 9 8 10 10 10 8 9 9 8 9 8 9 8 8 9 9 10 11 10 10 9 9 10 10 9 9 9 8 8 7 6 5 6 7 7 7 7 6 6 6 7 7 7 7 9 9 8 8 9 9 8 8 8 7 6 7 7 6 6 7 6 7 7 7 7
7 8 10 9 4 2 4 2 4 6 3 3 0 6 3 9 2 8 17 8 9 11 13 19 20 17 15 13 12 11 11 10 9 8 10 10 9 9 8 8 8 8 8 9 9 8 9 9 10 11 10 9 10 10 12 11 10 9 8 8 7 6 6 6 6 7 6 6 5 6 6 6 6 6 7 8 8 9 7 8 8 8 7 7 7 7 7 8 7 7 8 8 8 9 8 10 8
8 12 10 10 6 6 3 3 2 2 1 1 0 4 6 3 0 1 4 6 4 12 11 15 17 16 15 14 12 12 12 11 10 10 10 9 8 9 8 7 7 6 8 9 9 8 8 9 9 11 10 9 10 12 12 12 12 10 9 8 7 6 7 7 7 7 7 6 6 6 6 6 7 7 7 8 7 8 8 7 7 7 7 7 8 8 8 8 9 8 8 9 9 8 9 10 9
7 3 10 6 5 4 4 5 5 3 3 3 3 9 4 8 2 2 5 4 4 11 14 14 13 14 14 13 13 13 13 11 11 11 10 8 9 10 9 6 6 5 7 8 7 8 8 8 9 10 10 10 12 12 12 13 11 11 10 9 8 7 8 7 7 7 8 8 7 8 7 7 7 7 7 7 8 9 9 8 9 9 8 8 8 9 8 8 9 9 8 9 9 9 10 10 9
1 2 4 4 9 1 4 1 3 4 4 2 4 3 3 1 2 3 3 3 10 14 17 16 15 14 14 14 15 14 12 12 11 11 10 9 8 10 9 8 7 7 8 8 9 8 8 8 9 10 10 10 12 13 12 11 11 9 10 10 9 9 8 8 7 8 8 8 8 8 8 8 8 7 8 8 9 9 9 9 9 9 9 9 9 10 10 8 10 9 9 9 10 8 9 10 9
7 4 10 3 5 6 5 2 4 2 0 3 3 1 3 2 3 2 4 11 14 16 17 17 16 16 15 14 14 14 13 12 12 11 10 11 8 7 8 9 7 7 7 7 8 8 8 8 9 11 11 11 12 12 12 11 10 10 10 10 9 9 9 9 8 9 8 8 9 9 8 9 9 8 7 7 8 9 9 8 8 8 9 9 10 10 10 10 10 9 9 10 10 10 9 9 9
7 9 7 5 2 4 2 3 1 2 6 2 2 6 3 5 3 7 7 14 15 16 18 19 19 18 16 14 14 14 14 14 14 12 9 9 8 8 8 7 8 8 8 9 9 8 7 7 9 11 11 12 11 11 11 10 10 11 11 11 10 9 8 8 8 8 8 9 9 9 9 9 10 8 7 7 8 9 9 9 8 9 9 10 10 10 10 10 10 10 11 10 11 11 11 9 9
9 6 9 9 5 9 2 1 3 4 4 2 2 4 5 8 5 9 13 16 19 18 19 19 19 19 18 16 16 15 15 14 14 11 9 8 7 7 8 9 10 9 9 10 9 9 9 9 9 11 12 11 11 9 10 9 10 9 9 10 9 9 9 8 8 9 9 10 10 10 11 10 8 8 9 9 9 9 9 9 9 10 10 11 11 11 11 10 10 10 12 11 12 13 12 12 11
5 5 11 2 2 3 7 3 1 3 3 1 3 3 3 8 7 18 20 21 21 19 18 20 20 19 16 16 16 16 15 14 13 10 9 9 8 8 9 10 11 10 10 9 10 9 10 10 11 11 11 11 11 11 10 10 10 10 9 10 10 9 9 10 10 10 10 11 11 10 10 10 9 9 9 10 9 10 10 10 10 11 12 12 13 12 11 11 10 10 11 11 12 13 13 12 12
8 9 9 5 1 3 2 2 3 3 2 2 1 3 4 5 9 17 19 22 21 20 17 16 17 16 16 16 16 15 15 13 9 9 10 10 9 9 10 10 9 9 9 9 10 10 9 9 11 10 11 11 10 9 9 9 9 9 10 11 10 10 11 10 11 11 11 11 10 10 9 8 9 10 9 10 10 10 10 10 11 12 12 12 13 12 11 10 10 11 11 12 12 13 13 11 11
12 12 11 10 7 8 10 8 4 1 3 3 3 4 1 2 2 6 12 16 17 16 16 15 15 16 16 15 16 16 13 10 10 10 10 9 9 10 11 10 9 9 9 10 10 10 10 10 9 9 9 9 10 9 9 9 9 8 10 11 11 10 10 10 11 11 11 11 10 10 9 9 10 9 9 9 10 9 9 10 11 12 12 12 12 12 11 10 11 11 11 10 12 13 14 14 13
Wind_Direction
331 334 321 319 246 272 250 6 276 94 289 266 293 239 288 12 5 278 294 295 272 50 316 200 170 150 184 188 108 82 39 171 357 187 117 87 145 137 128 139 134 136 136 137 137 141 140 135 133 124 123 124 121 121 120 117 115 113 114 114 115 116 117 117 116 115 115 113 113 111 111 109 106 104 99 98 97 97 93 100 101 103 101 98 103 104 104 103 103 103 103 103 101 100 101 101 99
335 325 323 266 318 287 163 303 94 223 9 254 244 354 350 322 269 348 289 354 328 63 81 95 89 87 81 93 115 116 51 33 7 58 86 118 133 125 130 139 138 136 134 138 140 143 139 136 134 126 123 122 124 124 120 114 116 114 112 114 115 115 115 115 114 113 111 110 110 109 106 104 100 98 97 93 90 92 96 98 98 93 95 99 104 105 103 102 98 95 95 98 99 98 99 97 101
349 344 300 207 26 30 101 316 248 154 244 257 248 233 6 315 3 318 305 105 120 125 95 80 93 63 101 135 109 340 119 64 102 97 104 138 137 139 137 140 137 134 136 138 136 142 135 137 133 125 124 125 125 124 121 118 119 117 113 110 111 113 114 113 110 109 111 109 107 107 104 102 102 102 99 91 86 88 85 82 88 94 92 95 98 100 99 98 97 96 93 93 93 95 98 101 105
0 18 328 317 165 284 107 96 158 187 240 267 307 37 4 70 58 61 94 127 135 190 278 359 20 3 288 93 86 81 90 117 101 122 128 154 139 136 136 137 135 135 135 138 136 141 136 129 128 125 125 125 125 125 122 122 119 117 113 111 111 111 110 110 109 108 108 108 109 106 103 100 97 94 91 95 94 83 82 79 75 73 72 69 74 85 89 95 94 92 90 88 89 91 91 92 90
240 265 300 81 199 123 154 71 106 147 238 171 272 35 171 108 104 106 128 169 165 230 123 107 106 30 57 76 37 35 112 104 120 123 127 120 130 132 137 138 135 133 137 135 136 141 132 127 127 126 127 126 126 126 125 124 123 118 115 114 110 110 111 111 111 110 107 106 102 99 98 94 89 87 85 84 80 82 80 80 77 74 71 69 68 73 78 80 84 86 88 92 93 91 89 89 87
131 234 13 322 4 50 93 168 179 218 264 141 227 130 150 150 81 72 95 72 116 71 87 95 54 179 77 35 34 104 121 141 135 114 130 127 129 135 137 137 135 132 127 131 139 139 129 128 128 124 127 129 128 127 125 127 124 122 117 115 113 112 112 111 115 111 108 106 102 100 97 90 90 91 90 84 81 79 75 69 67 67 72 74 73 74 77 76 79 88 93 89 87 85 85 81 76
218 83 13 77 100 316 241 216 228 222 213 199 258 167 182 184 289 326 138 111 66 73 53 98 105 125 100 107 88 51 15 117 149 127 130 130 129 134 136 131 129 127 131 131 139 133 125 125 124 128 132 131 129 128 127 127 125 124 116 114 112 112 114 114 111 108 106 99 95 90 84 85 83 81 79 78 77 76 74 72 69 67 65 66 66 65 70 71 78 84 87 88 89 89 86 81 77
84 243 10 201 121 263 207 238 246 170 206 205 341 292 232 228 278 319 332 328 74 112 95 102 101 102 89 245 133 46 55 72 110 122 123 128 131 133 132 130 128 129 131 136 137 127 123 124 127 131 131 129 128 127 127 128 128 124 119 114 109 107 107 110 110 107 104 99 97 92 86 81 76 73 70 70 74 76 77 75 72 68 66 67 70 70 66 65 66 74 82 91 93 91 85 79 78
24 74 290 139 183 51 176 220 260 179 286 232 251 238 287 261 196 256 297 31 127 129 149 162 341 223 114 110 86 76 66 105 117 122 128 128 130 130 131 131 130 130 133 137 133 128 131 129 131 132 130 128 126 127 128 129 128 125 121 109 101 102 104 108 107 105 103 100 95 89 86 83 79 75 75 75 75 76 76 74 73 73 74 72 68 68 69 65 62 70 80 88 92 89 84 81 85
82 296 164 142 69 213 232 221 224 190 226 239 254 249 259 280 242 203 239 207 175 158 138 35 50 115 130 110 117 71 99 117 120 123 127 132 131 129 131 131 132 134 134 136 135 133 131 138 134 129 126 126 127 129 129 129 126 119 105 96 89 92 101 109 112 110 108 105 98 91 88 88 87 86 85 83 82 81 79 78 76 77 78 77 74 68 65 66 65 68 77 79 82 81 78 78 89
158 47 15 174 190 227 215 225 226 245 232 254 267 241 246 247 250 162 188 184 173 183 123 115 92 120 123 103 58 97 134 128 130 128 131 133 133 129 126 127 129 134 137 138 138 137 141 140 135 126 121 119 117 116 114 109 100 95 98 89 89 91 104 115 116 112 104 100 99 97 95 93 91 88 86 86 85 86 86 86 83 80 81 80 76 76 75 74 76 72 70 72 79 80 80 80 87
158 189 176 194 214 217 190 245 256 263 279 264 280 214 193 224 198 186 156 162 181 192 162 178 143 135 105 127 112 133 138 139 130 132 133 133 130 129 127 129 132 134 137 138 139 138 137 135 138 126 111 109 109 108 105 95 94 96 95 98 99 94 92 114 114 111 105 103 100 100 99 94 91 90 88 86 84 85 84 84 84 80 75 77 80 79 79 78 77 77 73 67 67 69 72 74 85
197 95 151 178 194 206 106 255 252 300 307 236 26 61 84 166 197 200 184 178 178 171 183 179 143 149 130 136 122 143 137 133 131 136 132 133 127 123 125 128 131 134 136 137 132 132 132 133 132 132 120 111 107 108 104 96 97 101 100 103 101 89 90 106 113 110 106 105 103 101 99 96 96 92 90 90 87 83 84 85 82 76 75 76 78 77 78 80 79 77 72 67 63 60 62 64 70
180 195 163 203 45 135 183 222 84 268 273 99 218 290 191 218 239 244 162 163 181 185 114 143 147 135 107 108 150 158 141 139 134 132 128 127 128 128 125 129 131 135 135 130 127 127 126 125 125 128 132 133 130 121 103 98 101 99 101 101 92 87 93 103 108 106 104 105 107 104 98 97 93 96 100 93 89 84 80 77 74 69 69 75 79 76 76 77 78 77 72 68 65 63 62 61 63
187 172 145 91 148 181 202 211 239 189 192 115 108 309 340 227 200 174 185 179 164 64 122 136 146 152 179 166 186 174 149 144 139 134 127 125 127 126 128 133 134 131 129 125 124 124 122 118 121 122 118 120 120 119 126 112 109 111 108 99 97 93 92 103 105 105 107 106 92 80 82 77 80 74 73 95 91 81 76 76 64 64 66 73 78 78 78 76 75 73 72 67 68 68 64 63 65
127 145 82 191 184 207 175 211 160 112 146 178 86 264 180 45 169 181 207 175 119 119 150 154 213 324 147 178 153 148 144 141 137 132 128 124 124 126 130 134 132 130 126 124 123 120 118 120 118 113 114 114 114 115 119 121 123 122 115 106 106 110 110 106 103 101 92 86 85 82 72 78 71 67 57 81 78 86 78 61 67 62 63 68 72 73 72 74 74 75 77 79 76 67 66 71 68
128 83 168 151 211 192 156 201 165 199 63 224 259 5 3 57 52 51 103 130 135 141 71 41 193 323 162 138 140 134 139 133 134 134 132 132 133 138 136 132 134 131 129 130 128 125 121 119 115 115 113 115 116 117 117 122 122 127 119 115 114 113 109 106 106 102 97 89 89 82 83 67 69 70 71 60 70 66 54 72 69 67 62 64 67 68 70 71 71 75 78 80 84 79 70 74 76
168 186 177 210 175 187 169 196 189 59 289 334 342 7 318 112 115 119 101 81 120 121 105 92 66 74 100 121 128 130 134 136 137 141 145 144 148 144 141 142 145 141 135 132 131 131 126 118 116 118 122 121 120 120 123 127 124 118 122 132 134 128 124 118 110 89 86 89 80 80 66 62 43 59 68 60 62 89 100 58 78 68 63 60 56 60 59 66 66 68 81 79 83 75 48 101 98
188 112 205 226 161 150 174 192 221 289 307 313 314 305 280 173 149 169 153 147 142 124 116 113 101 109 114 125 127 136 138 141 146 148 153 153 153 152 149 148 150 142 138 136 132 128 121 117 121 123 123 125 121 124 129 119 117 124 123 129 132 142 116 102 97 95 88 85 71 67 67 66 69 47 57 85 82 51 57 58 69 63 57 50 40 51 56 54 56 53 68 82 91 96 133 98 94
186 193 212 225 187 230 231 201 234 214 299 304 315 336 216 159 159 151 166 156 161 151 141 131 135 136 139 137 139 140 147 149 148 150 153 153 152 152 151 153 149 147 139 137 130 125 121 120 121 122 125 125 128 128 121 121 125 130 129 116 102 117 114 111 102 94 88 77 80 78 74 78 76 63 36 75 132 128 100 97 75 73 66 55 19 39 81 76 65 78 63 90 134 120 107 127 117
130 215 224 200 172 214 225 204 246 264 239 277 297 312 159 174 142 161 148 149 180 186 175 163 163 151 145 145 144 147 150 149 150 155 155 152 152 152 154 151 148 139 137 130 131 127 129 126 126 124 127 130 132 131 127 125 121 125 123 93 77 92 111 112 108 109 106 107 101 100 102 84 46 17 12 11 9 35 68 65 100 43 20 29 2 18 6 68 72 51 96 126 92 110 103 90 109
133 223 182 136 120 208 244 220 211 220 218 230 319 189 152 137 135 147 168 179 183 196 184 36 159 150 149 150 151 150 152 149 150 154 156 157 154 151 148 142 133 133 132 135 130 130 128 130 126 128 134 139 133 129 132 133 135 132 122 104 105 112 110 108 118 115 115 103 71 74 79 61 344 2 4 14 18 6 9 35 36 39 15 18 15 15 18 12 27 59 43 50 83 117 124 133 118
211 158 239 250 207 248 31 193 191 179 182 225 296 168 133 179 132 145 181 325 358 43 119 136 147 148 146 143 146 149 150 148 153 156 156 155 153 147 146 141 145 143 140 130 130 129 131 130 128 134 134 132 125 127 125 128 134 132 125 130 116 109 108 115 117 120 113 94 79 51 7 359 357 348 359 7 17 4 6 11 15 2 11 17 21 358 23 24 7 14 16 30 51 104 125 131 153
238 199 77 249 202 229 215 256 200 252 222 224 232 127 178 149 143 144 81 27 83 104 113 134 139 143 145 147 149 143 145 151 156 153 155 150 149 147 145 146 146 138 133 132 132 132 135 134 133 135 132 132 133 134 122 124 132 137 138 121 117 123 133 121 124 115 108 90 79 63 33 347 348 347 347 348 15 331 23 13 7 352 350 353 2 354 0 17 11 4 354 342 339 5 84 116 115
194 237 184 269 165 221 239 246 267 253 249 227 230 187 175 177 138 123 66 101 119 121 122 134 136 139 143 144 141 141 144 145 139 141 141 140 142 140 141 138 139 136 130 133 132 131 134 134 136 134 132 130 131 133 126 122 130 129 120 120 123 124 104 107 111 125 104 90 94 91 356 358 340 341 344 344 332 348 6 354 315 325 324 348 341 350 347 343 348 352 345 331 332 331 323 354 139
192 217 191 250 254 246 241 269 250 245 254 171 140 159 133 117 104 61 62 120 132 129 129 136 138 143 145 144 143 140 141 140 136 138 142 141 142 140 139 141 137 133 131 132 135 130 130 129 133 133 130 128 125 130 124 124 125 128 122 119 113 94 73 96 121 95 106 128 125 124 59 38 0 339 332 329 318 5 344 326 323 339 336 340 341 341 345 329 328 326 315 311 315 302 301 324 300
155 211 223 244 264 346 281 229 203 107 166 176 119 139 139 158 228 137 147 136 137 134 135 139 142 148 142 140 140 137 133 136 141 135 136 143 147 144 141 138 137 132 135 133 132 130 125 129 131 134 127 125 131 126 130 123 124 111 102 98 75 62 57 59 62 82 104 118 106 97 96 76 11 309 321 337 339 334 327 327 338 340 345 2 354 347 338 332 325 313 317 317 311 309 311 302 293
165 210 236 250 274 248 239 287 235 186 141 220 130 118 104 21 259 153 150 143 147 142 141 142 143 141 140 142 143 140 132 137 139 144 149 153 153 148 142 143 136 136 136 135 134 127 126 127 128 127 121 126 125 122 126 124 116 111 121 125 118 116 119 71 58 48 54 65 72 100 118 135 219 252 306 345 344 330 334 339 348 355 357 354 354 340 334 335 324 319 317 312 309 305 303 301 304
120 180 243 254 303 253 175 222 203 186 137 180 125 120 129 14 139 143 146 149 149 146 146 145 139 137 138 141 137 135 131 135 141 150 154 155 149 144 140 141 136 135 127 129 129 129 129 131 128 128 120 119 118 116 113 119 122 110 114 98 95 96 78 70 57 48 50 50 56 56 60 36 283 318 327 331 340 334 338 342 354 358 354 346 342 339 336 335 329 324 323 319 303 296 291 288 279
131 120 317 266 246 247 154 242 32 152 152 161 159 165 183 343 158 154 153 152 150 148 147 139 125 132 133 135 134 129 132 137 149 148 156 151 146 141 139 141 138 130 131 133 137 130 131 132 125 116 118 117 117 119 124 128 124 103 91 88 82 94 86 102 78 66 57 54 45 40 18 354 331 333 327 336 333 340 351 1 4 2 358 344 336 335 336 338 335 332 331 323 318 306 295 294 294
203 142 0 267 191 204 91 299 145 123 176 300 305 192 190 187 176 164 160 163 154 147 144 134 126 134 134 137 134 130 134 144 144 148 144 141 140 139 136 144 136 127 129 139 131 132 125 122 118 115 109 107 107 104 108 114 102 100 100 97 115 91 71 68 64 52 44 37 30 23 11 351 341 332 331 332 345 347 4 10 2 11 358 342 341 344 334 333 329 323 326 328 323 307 297 298 294
42 162 220 170 214 166 25 49 314 144 175 318 304 159 170 183 172 38 244 162 154 135 126 111 128 138 136 130 130 129 130 129 135 135 135 138 141 140 142 134 131 137 123 120 121 114 115 115 105 102 107 102 101 107 107 106 106 104 108 97 73 59 62 60 51 42 33 27 14 356 351 343 340 343 333 335 335 341 357 7 10 351 1 342 330 328 331 323 322 314 328 333 328 321 319 307 306
26 226 117 192 223 174 170 14 344 321 139 78 313 152 142 193 117 68 47 55 58 60 53 32 23 28 56 101 107 106 104 109 126 123 125 126 126 132 134 133 137 123 111 108 115 111 102 103 99 108 110 117 118 110 102 98 100 99 90 71 68 68 64 62 57 49 43 35 28 19 359 346 329 331 334 335 330 331 335 342 358 346 341 336 320 306 284 286 303 302 309 315 314 316 313 307 304
188 27 206 160 200 176 132 282 40 18 156 136 76 132 152 101 78 103 141 137 149 104 94 83 87 54 358 4 69 85 108 129 130 133 118 109 113 115 122 120 110 108 107 116 112 109 111 106 105 106 106 107 110 109 105 104 100 95 87 83 83 76 70 65 65 59 54 50 52 48 32 8 353 341 338 328 305 321 329 336 336 331 330 317 307 286 289 286 275 286 294 282 290 292 303 306 306
164 168 188 180 37 311 50 160 6 21 40 130 114 104 127 98 93 101 149 120 112 100 94 97 125 118 107 26 21 56 78 98 120 124 124 114 106 102 109 106 104 96 111 117 115 105 99 101 98 96 100 110 113 118 117 111 114 105 102 95 77 69 62 59 58 58 53 56 53 47 39 33 24 20 17 0 356 346 336 339 337 332 323 318 311 292 286 273 260 262 271 289 282 278 293 295 301
174 181 184 133 165 159 121 72 352 342 123 121 143 146 141 110 105 99 110 125 121 117 112 114 113 102 134 124 78 45 63 67 70 89 96 92 93 100 109 103 106 109 98 95 95 99 105 102 101 97 95 101 105 107 110 107 106 102 95 87 75 73 71 67 60 62 60 61 53 48 45 45 38 38 38 35 29 11 354 346 336 329 327 322 313 313 318 314 316 317 310 306 306 299 261 263 269
96 70 162 125 108 86 21 79 338 290 86 57 98 123 130 109 112 118 119 132 111 124 127 120 105 80 51 115 88 71 27 38 76 76 76 80 78 78 85 88 93 84 81 85 98 98 94 94 88 87 92 97 93 89 70 77 90 97 82 82 86 76 78 76 68 64 66 63 59 57 53 47 43 40 36 36 37 31 22 360 347 343 341 324 317 318 325 323 324 323 318 313 304 302 306 298 293
145 138 180 141 144 91 32 43 329 165 196 100 127 122 93 90 106 115 124 134 130 142 140 126 109 103 99 79 83 50 38 9 81 72 78 81 85 84 67 73 77 81 76 80 73 90 90 79 86 89 83 74 72 77 88 82 67 52 88 97 98 84 83 79 76 65 68 66 59 59 58 54 50 45 39 42 43 39 31 24 19 16 360 351 336 330 332 325 323 321 315 309 311 311 302 316 317
73 175 113 161 105 111 72 40 59 132 112 126 136 111 87 83 94 119 128 116 118 113 139 133 130 110 110 130 108 72 348 29 68 88 84 91 91 82 81 85 73 86 83 79 82 78 72 80 77 67 61 68 71 68 73 74 70 77 96 99 100 93 73 81 80 71 64 63 54 50 49 49 50 44 40 39 37 31 31 27 24 12 3 355 338 336 338 337 343 328 316 310 309 296 288 283 284
159 139 179 190 116 191 112 31 72 356 160 143 134 104 105 90 80 83 110 114 101 90 116 131 145 132 150 150 127 132 140 320 91 99 99 97 95 92 86 83 86 90 82 76 70 76 69 71 68 72 69 69 78 76 84 84 85 86 82 80 75 75 88 83 80 73 62 57 51 46 50 47 47 45 40 40 40 37 30 27 22 19 17 5 348 336 340 340 341 334 329 319 306 307 317 292 288
30 223 159 113 166 57 99 113 94 93 98 132 125 97 96 119 110 97 95 115 118 113 115 100 89 67 105 102 98 122 138 145 123 110 104 92 80 77 73 74 61 66 64 67 58 74 71 78 78 71 67 61 59 54 78 101 107 99 91 82 69 66 54 49 64 62 53 53 54 46 39 43 40 39 38 39 40 36 30 26 25 27 20 20 9 344 336 337 326 324 326 317 322 321 315 310 306
185 242 199 134 102 116 122 134 120 105 112 145 137 120 160 118 115 126 125 127 131 137 132 128 133 120 130 136 143 137 127 119 111 99 96 89 91 88 79 72 77 74 69 60 68 70 74 72 70 75 68 56 55 54 50 67 98 123 127 120 111 99 78 60 59 60 58 54 55 48 47 47 45 39 38 40 38 37 34 25 20 19 14 18 15 14 11 7 358 358 347 338 332 332 321 314 308
176 196 157 149 134 126 149 159 164 138 150 172 260 191 154 151 162 153 144 137 139 154 157 157 162 150 154 149 158 125 115 115 107 108 101 97 94 94 82 76 69 89 92 94 87 80 75 66 56 58 64 65 53 51 43 71 98 96 97 95 101 104 104 85 73 66 68 63 50 52 51 49 46 43 37 38 37 39 36 32 29 24 25 21 15 15 14 7 360 356 345 343 335 322 308 303 301
194 108 154 144 133 151 169 141 57 105 85 128 248 325 155 170 189 169 156 149 152 160 172 166 162 153 145 145 150 134 126 127 128 116 107 99 92 95 99 87 80 84 85 84 75 69 68 66 66 61 61 59 55 56 67 76 89 93 96 95 92 92 93 99 86 78 70 60 56 50 53 55 54 47 42 38 35 34 34 34 29 24 26 25 19 21 10 2 355 353 349 340 333 333 328 316 314
182 152 155 156 165 175 145 132 112 126 142 155 199 242 137 177 158 166 165 156 169 186 179 173 160 149 135 132 130 127 117 107 106 115 109 103 102 94 94 90 89 86 76 76 79 79 79 77 75 72 67 65 61 72 82 80 83 86 89 93 92 88 92 90 88 75 66 56 54 50 49 50 60 57 43 40 36 34 36 33 29 26 23 22 16 10 6 359 357 355 354 342 332 326 320 311 307
70 130 71 64 62 74 111 125 119 142 207 177 191 210 165 162 159 174 186 194 194 197 190 174 157 156 146 144 142 121 115 112 103 111 108 105 107 102 93 95 89 83 80 85 86 84 82 82 78 77 72 68 71 80 82 82 81 81 81 82 87 87 85 82 66 64 57 54 53 49 48 49 48 50 39 35 34 33 33 32 30 28 26 19 16 10 0 353 355 353 351 344 338 335 325 322 323
129 132 124 92 60 69 79 59 124 134 238 179 182 198 206 180 189 190 182 200 197 190 182 161 157 160 144 142 140 131 118 118 126 126 118 111 105 104 99 95 99 96 92 93 87 88 87 85 84 80 75 73 67 70 76 77 74 73 74 73 72 72 68 64 67 57 53 48 45 48 50 53 52 52 33 32 34 27 31 30 24 21 21 18 11 7 3 349 342 329 326 332 337 339 334 336 335
143 133 139 128 86 100 93 73 27 214 217 82 188 189 212 205 193 210 214 242 199 179 176 159 165 164 148 147 140 137 131 131 128 127 123 122 112 103 103 102 101 101 100 96 94 92 88 86 87 84 78 77 74 72 70 68 68 66 65 61 59 53 52 54 54 53 49 54 52 56 57 57 60 62 41 37 30 22 26 27 24 21 19 10 6 354 347 345 337 333 335 340 339 332 329 334 325
170 137 152 159 146 147 193 169 211 214 210 69 195 176 129 236 147 213 205 190 201 194 180 169 168 162 152 150 141 136 133 131 134 132 129 128 114 106 97 102 105 101 101 101 96 91 86 82 81 85 82 82 82 78 73 68 65 62 59 61 60 58 60 64 66 67 63 62 58 57 56 57 55 61 49 41 34 26 25 24 23 17 9 4 355 352 346 346 347 346 348 348 346 340 343 340 327
175 170 166 170 163 181 184 177 14 24 205 43 318 184 247 32 237 297 216 176 216 182 169 174 166 157 149 146 142 140 144 142 140 139 137 132 120 113 107 105 101 104 110 105 100 95 93 91 88 84 79 77 79 76 72 69 64 61 60 61 60 57 63 63 66 67 66 66 63 60 58 57 57 51 50 45 31 28 29 27 24 19 12 3 359 354 351 352 0 354 358 359 351 349 347 343 336
191 75 179 206 152 171 173 179 187 193 126 69 112 155 214 181 122 314 268 277 233 159 153 162 157 150 146 144 141 145 147 144 143 143 140 131 124 118 118 115 106 107 109 100 99 94 92 89 88 86 81 72 72 72 69 67 63 60 59 58 61 71 70 70 66 65 65 68 66 65 59 56 57 51 45 39 32 29 27 26 24 21 14 9 5 3 0 5 4 7 7 2 356 353 348 346 342
134 153 28 159 199 50 197 96 178 149 138 120 176 222 1 27 354 298 268 196 170 153 146 148 151 154 151 150 153 155 153 147 142 138 136 126 120 123 123 122 123 123 118 113 106 103 97 94 90 85 80 75 72 73 72 71 69 66 63 62 63 65 71 70 67 65 66 65 63 62 60 57 56 56 51 45 37 32 28 24 23 20 13 10 8 9 10 10 12 14 10 4 359 354 345 344 343
164 147 199 183 90 113 100 95 34 56 47 215 108 138 194 262 244 196 177 156 153 149 149 152 156 163 162 159 157 154 153 149 147 143 138 131 127 126 121 123 122 119 111 100 93 94 102 104 99 91 84 78 74 74 76 76 75 72 67 65 63 63 61 60 60 58 57 58 62 61 58 54 52 49 50 43 40 39 35 29 25 19 16 11 10 12 12 13 16 17 11 9 5 353 345 343 340
111 205 180 87 53 37 162 201 126 212 213 191 166 170 171 181 191 160 162 153 152 156 160 164 166 165 165 162 158 156 153 152 149 142 126 123 126 121 115 110 113 115 113 102 95 92 89 91 95 93 84 79 76 77 77 77 77 76 74 68 65 64 64 61 59 59 58 58 58 60 57 55 51 50 47 42 40 37 34 30 27 22 18 16 14 12 11 11 8 12 8 8 5 359 357 352 347
194 167 127 181 181 207 166 118 194 178 206 163 180 199 212 210 142 165 172 168 170 169 167 166 168 172 170 162 158 154 151 149 149 141 128 126 126 128 121 116 111 104 98 99 101 99 94 86 81 83 84 82 83 81 81 80 79 78 74 72 68 67 64 62 61 60 58 57 57 58 59 57 49 44 42 41 38 35 32 29 26 23 19 18 17 15 11 10 8 9 10 8 5 1 1 358 358
30 116 176 17 323 223 156 210 53 188 210 172 150 144 233 207 192 185 184 185 177 167 167 174 173 173 167 161 156 154 153 151 149 136 129 125 130 130 122 118 117 114 113 109 103 99 94 90 88 87 88 88 84 80 82 84 81 81 79 74 68 66 63 60 58 57 59 58 57 58 57 55 49 44 44 41 39 36 32 30 27 24 21 18 18 16 12 11 10 10 7 6 4 1 1 358 354
151 174 178 180 184 342 8 95 215 218 174 205 118 213 215 209 200 190 190 184 177 173 169 165 169 168 163 158 153 152 152 148 136 131 130 134 139 132 116 111 112 111 108 106 105 102 99 96 91 92 94 91 85 83 83 82 80 77 77 75 72 66 66 64 61 60 63 60 58 56 53 54 50 47 42 41 38 34 31 28 26 24 21 18 16 15 12 10 11 8 5 4 2 2 1 358 350
176 178 183 182 153 168 183 209 79 125 193 197 176 246 87 93 5 220 189 182 173 171 163 162 163 159 157 155 154 152 146 136 132 131 136 139 136 121 115 115 115 111 108 106 104 106 103 98 98 97 94 91 91 87 85 82 78 76 79 81 77 70 67 64 63 60 60 60 58 54 53 52 53 46 42 41 38 34 32 31 30 27 23 18 15 14 11 9 9 6 5 4 1 358 1 0 356